This demonstration page uses our WeatherBlox Daily Observations layout. Learn more.

Left ArrowRight Arrow

Hourly Observations for March 5, 2020

Temp ( °F °C ) Dew Point ( °F °C ) Humidity (%) Winds ( mph kmh ) Pressure ( in mb ) Visibility ( mi km ) Precip ( " mm )
7:55 am 07:55 Sunny 33 0.5 27 -2.7 79 79 N N/A 30.14 1021 10 16 N/A
8:15 am 08:15 Sunny 35 1.4 28 -2.5 76 76 SSE 7 11 30.14 1021 10 16 N/A
8:35 am 08:35 Sunny 36 2 28 -2.2 74 74 SSE 7 11 30.15 1021 10 16 N/A
8:55 am 08:55 Sunny 37 3 29 -1.7 72 72 S 10 17 30.15 1021 10 16 N/A
9:15 am 09:15 Sunny 39 3.7 29 -1.5 69 69 S 12 19 30.15 1021 10 16 N/A
9:35 am 09:35 Sunny 40 4.6 29 -1.9 63 63 S 9 15 30.15 1021 10 16 N/A
9:55 am 09:55 Sunny 41 5 28 -2 61 61 S 15 24 30.15 1021 10 16 N/A
10:15 am 10:15 Sunny 42 5.6 28 -2.1 58 58 S 14 22 30.14 1021 10 16 N/A
10:35 am 10:35 Sunny 44 6.6 28 -2.1 54 54 S 15 24 30.14 1021 10 16 N/A
12:20 pm 12:20 Sunny N/A N/A N/A SSE 13 20 N/A 10 16 N/A
12:35 pm 12:35 Sunny 51 10.3 29 -1.9 43 43 S 13 20 30.05 1018 10 16 N/A
12:55 pm 12:55 Sunny 51 10.7 28 -2.5 40 40 S 13 20 30.04 1017 10 16 N/A
1:15 pm 13:15 Sunny 52 11 26 -3.5 36 36 S 10 17 30.03 1017 10 16 N/A
1:55 pm 13:55 Sunny 55 12.7 25 -4.1 31 31 SSW 14 22 29.99 1016 10 16 N/A
2:15 pm 14:15 Sunny 56 13.2 22 -5.5 27 27 SW 13 20 29.97 1015 10 16 N/A
2:35 pm 14:35 Sunny 57 14.1 23 -4.9 27 27 SSW 12 19 29.95 1014 10 16 N/A
2:55 pm 14:55 Sunny 58 14.2 23 -5.2 26 26 SW 12 19 29.94 1014 10 16 N/A
3:15 pm 15:15 Sunny 57 13.8 21 -5.9 25 25 SW 16 26 29.94 1014 10 16 N/A
3:35 pm 15:35 Sunny 57 14.1 22 -5.3 26 26 WSW 14 22 29.94 1014 10 16 N/A
3:55 pm 15:55 Sunny 58 14.3 20 -6.4 23 23 W 16 26 29.93 1013 10 16 N/A
4:15 pm 16:15 Sunny 58 14.5 20 -6.6 23 23 WSW 16 26 29.93 1013 10 16 N/A
4:35 pm 16:35 Sunny 57 14 20 -6.7 23 23 WSW 18 30 29.93 1013 10 16 N/A
4:55 pm 16:55 Sunny 56 13.6 23 -5.2 27 27 WSW 14 22 29.93 1014 10 16 N/A
5:15 pm 17:15 Sunny 56 13.4 26 -3.1 32 32 W 15 24 29.94 1014 10 16 N/A
5:35 pm 17:35 Partly Cloudy 54 12.2 28 -2.4 36 36 W 22 35 29.94 1014 10 16 N/A

Powered by AerisWeather